Precipitable_Water
0.10 0.05 0.05 0.06 0.09 0.10 0.12 0.12 0.12 0.13 0.13 0.12 0.11 0.09 0.08 0.07 0.06 0.08 0.09 0.11 0.14 0.09 0.09 0.09 0.11 0.10 0.12 0.14 0.16 0.18 0.19 0.18 0.18 0.19 0.19 0.20 0.21 0.22 0.22 0.22 0.23 0.23 0.24 0.26 0.26 0.27 0.27 0.27 0.27 0.27 0.27 0.27 0.27 0.27 0.28 0.28 0.28 0.28 0.27 0.26 0.26 0.27 0.28 0.29 0.30 0.31 0.31 0.30 0.31 0.32 0.31 0.30 0.31 0.32 0.35 0.38 0.41 0.46 0.51 0.54 0.56 0.56 0.56 0.56 0.56 0.57
0.12 0.05 0.07 0.09 0.11 0.12 0.13 0.14 0.13 0.14 0.13 0.11 0.09 0.08 0.06 0.07 0.05 0.06 0.08 0.12 0.14 0.09 0.08 0.10 0.11 0.10 0.12 0.14 0.16 0.18 0.18 0.16 0.17 0.18 0.18 0.19 0.19 0.20 0.21 0.22 0.22 0.23 0.25 0.25 0.26 0.27 0.27 0.27 0.27 0.28 0.27 0.27 0.26 0.27 0.28 0.28 0.28 0.29 0.29 0.27 0.27 0.27 0.27 0.28 0.29 0.31 0.32 0.32 0.32 0.32 0.31 0.31 0.31 0.30 0.31 0.32 0.34 0.37 0.40 0.43 0.46 0.49 0.51 0.52 0.53 0.54
0.06 0.07 0.09 0.12 0.13 0.15 0.14 0.14 0.14 0.12 0.11 0.11 0.07 0.07 0.07 0.06 0.08 0.09 0.08 0.11 0.13 0.10 0.08 0.11 0.10 0.10 0.12 0.14 0.16 0.16 0.16 0.17 0.17 0.17 0.17 0.17 0.18 0.19 0.20 0.21 0.22 0.23 0.24 0.25 0.25 0.26 0.26 0.26 0.27 0.27 0.27 0.26 0.26 0.26 0.26 0.27 0.28 0.29 0.29 0.29 0.28 0.28 0.28 0.28 0.29 0.30 0.30 0.32 0.33 0.34 0.35 0.34 0.33 0.33 0.32 0.31 0.31 0.33 0.35 0.36 0.39 0.42 0.43 0.45 0.47 0.49
0.06 0.08 0.12 0.14 0.13 0.13 0.13 0.13 0.13 0.11 0.11 0.08 0.08 0.06 0.05 0.06 0.06 0.05 0.09 0.10 0.12 0.10 0.07 0.11 0.09 0.11 0.13 0.15 0.15 0.17 0.17 0.17 0.18 0.18 0.18 0.19 0.19 0.20 0.20 0.21 0.21 0.21 0.22 0.22 0.23 0.24 0.25 0.25 0.25 0.24 0.24 0.25 0.25 0.24 0.25 0.26 0.27 0.28 0.29 0.28 0.28 0.29 0.29 0.29 0.29 0.29 0.29 0.31 0.34 0.35 0.36 0.36 0.37 0.36 0.38 0.37 0.35 0.34 0.34 0.34 0.35 0.37 0.38 0.39 0.40 0.41
0.08 0.12 0.16 0.14 0.12 0.11 0.10 0.11 0.11 0.10 0.08 0.09 0.08 0.07 0.06 0.06 0.07 0.07 0.06 0.09 0.10 0.11 0.13 0.10 0.10 0.10 0.12 0.11 0.12 0.16 0.17 0.17 0.18 0.18 0.18 0.20 0.21 0.21 0.22 0.22 0.22 0.22 0.22 0.21 0.21 0.21 0.21 0.20 0.20 0.20 0.19 0.20 0.21 0.22 0.22 0.23 0.24 0.26 0.27 0.27 0.27 0.28 0.29 0.30 0.29 0.28 0.27 0.28 0.29 0.33 0.35 0.36 0.35 0.35 0.34 0.33 0.32 0.32 0.32 0.32 0.34 0.36 0.38 0.38 0.39 0.39
0.10 0.15 0.17 0.12 0.11 0.11 0.10 0.09 0.10 0.10 0.07 0.07 0.08 0.07 0.07 0.08 0.08 0.08 0.09 0.09 0.06 0.06 0.11 0.08 0.05 0.06 0.10 0.10 0.12 0.14 0.16 0.15 0.17 0.17 0.18 0.19 0.20 0.21 0.20 0.20 0.21 0.21 0.22 0.21 0.20 0.20 0.20 0.19 0.19 0.18 0.17 0.17 0.16 0.17 0.20 0.22 0.22 0.24 0.24 0.24 0.25 0.26 0.27 0.28 0.28 0.27 0.26 0.25 0.25 0.27 0.30 0.31 0.32 0.32 0.32 0.31 0.31 0.32 0.32 0.32 0.34 0.35 0.36 0.38 0.39 0.40
0.11 0.16 0.15 0.11 0.10 0.10 0.10 0.09 0.11 0.12 0.08 0.07 0.06 0.09 0.08 0.09 0.08 0.08 0.08 0.09 0.04 0.04 0.07 0.11 0.06 0.05 0.10 0.10 0.11 0.13 0.14 0.14 0.16 0.16 0.17 0.18 0.19 0.20 0.20 0.20 0.21 0.21 0.21 0.22 0.21 0.20 0.19 0.18 0.16 0.15 0.15 0.14 0.14 0.15 0.17 0.20 0.22 0.23 0.23 0.22 0.23 0.24 0.26 0.27 0.27 0.26 0.25 0.24 0.24 0.23 0.25 0.28 0.31 0.32 0.34 0.35 0.35 0.34 0.34 0.35 0.35 0.35 0.35 0.36 0.37 0.38
0.14 0.14 0.14 0.12 0.10 0.09 0.09 0.08 0.12 0.13 0.10 0.06 0.08 0.09 0.09 0.08 0.07 0.08 0.08 0.08 0.06 0.09 0.09 0.09 0.10 0.05 0.05 0.10 0.13 0.14 0.13 0.13 0.14 0.16 0.17 0.18 0.19 0.19 0.20 0.21 0.21 0.22 0.21 0.20 0.19 0.18 0.18 0.16 0.15 0.14 0.13 0.13 0.14 0.15 0.18 0.19 0.20 0.20 0.21 0.21 0.21 0.23 0.24 0.25 0.26 0.26 0.25 0.23 0.23 0.22 0.22 0.24 0.27 0.29 0.31 0.34 0.35 0.36 0.37 0.37 0.37 0.38 0.38 0.37 0.36 0.36
0.14 0.12 0.12 0.10 0.09 0.09 0.08 0.10 0.13 0.15 0.09 0.08 0.10 0.10 0.08 0.09 0.08 0.09 0.09 0.07 0.08 0.07 0.05 0.09 0.09 0.06 0.05 0.09 0.12 0.13 0.11 0.13 0.14 0.15 0.17 0.18 0.19 0.20 0.21 0.21 0.22 0.22 0.22 0.20 0.19 0.17 0.16 0.14 0.13 0.12 0.12 0.13 0.14 0.14 0.17 0.18 0.18 0.20 0.23 0.23 0.22 0.22 0.22 0.22 0.23 0.24 0.24 0.24 0.22 0.21 0.21 0.20 0.23 0.26 0.28 0.31 0.33 0.32 0.33 0.34 0.35 0.35 0.35 0.36 0.36 0.37
0.13 0.15 0.15 0.13 0.10 0.08 0.10 0.12 0.14 0.15 0.09 0.11 0.11 0.11 0.10 0.10 0.09 0.09 0.09 0.07 0.07 0.06 0.05 0.05 0.08 0.05 0.05 0.07 0.11 0.13 0.11 0.12 0.13 0.16 0.17 0.19 0.20 0.21 0.21 0.22 0.22 0.22 0.20 0.19 0.16 0.14 0.13 0.12 0.12 0.13 0.13 0.13 0.13 0.14 0.14 0.16 0.15 0.15 0.17 0.20 0.21 0.21 0.21 0.22 0.21 0.21 0.21 0.22 0.22 0.20 0.20 0.19 0.19 0.21 0.24 0.26 0.27 0.28 0.30 0.31 0.32 0.33 0.34 0.34 0.35 0.36
0.14 0.19 0.22 0.15 0.11 0.11 0.11 0.13 0.14 0.16 0.13 0.15 0.11 0.09 0.08 0.08 0.07 0.08 0.08 0.07 0.06 0.04 0.05 0.06 0.08 0.08 0.06 0.07 0.09 0.10 0.12 0.14 0.15 0.17 0.19 0.20 0.21 0.22 0.22 0.22 0.21 0.18 0.17 0.16 0.15 0.13 0.10 0.09 0.09 0.11 0.12 0.13 0.14 0.15 0.16 0.16 0.16 0.16 0.17 0.19 0.19 0.19 0.20 0.21 0.21 0.21 0.20 0.19 0.19 0.20 0.19 0.18 0.18 0.19 0.21 0.21 0.23 0.25 0.27 0.28 0.29 0.31 0.32 0.34 0.33 0.34
0.14 0.15 0.13 0.14 0.19 0.15 0.14 0.10 0.14 0.17 0.14 0.13 0.09 0.08 0.07 0.07 0.08 0.08 0.07 0.07 0.04 0.04 0.06 0.07 0.08 0.09 0.07 0.08 0.13 0.16 0.17 0.17 0.18 0.18 0.18 0.19 0.20 0.20 0.21 0.19 0.18 0.17 0.16 0.12 0.10 0.09 0.09 0.09 0.11 0.13 0.13 0.14 0.15 0.15 0.16 0.17 0.18 0.18 0.20 0.20 0.19 0.19 0.19 0.19 0.19 0.19 0.19 0.19 0.20 0.20 0.19 0.18 0.18 0.19 0.19 0.20 0.20 0.22 0.23 0.25 0.26 0.28 0.30 0.31 0.33 0.34
0.11 0.11 0.11 0.13 0.19 0.13 0.10 0.10 0.12 0.12 0.13 0.11 0.09 0.08 0.06 0.05 0.05 0.04 0.05 0.04 0.04 0.04 0.07 0.08 0.10 0.09 0.09 0.12 0.14 0.16 0.17 0.19 0.20 0.20 0.20 0.19 0.19 0.19 0.19 0.20 0.18 0.15 0.11 0.09 0.09 0.08 0.09 0.11 0.13 0.14 0.15 0.16 0.16 0.17 0.17 0.18 0.19 0.20 0.21 0.21 0.20 0.19 0.19 0.19 0.18 0.18 0.19 0.20 0.20 0.20 0.19 0.18 0.18 0.19 0.19 0.19 0.19 0.21 0.23 0.24 0.25 0.26 0.26 0.28 0.28 0.30
0.10 0.11 0.10 0.11 0.14 0.14 0.12 0.09 0.09 0.09 0.11 0.10 0.09 0.08 0.06 0.05 0.05 0.04 0.05 0.06 0.05 0.06 0.08 0.09 0.11 0.08 0.08 0.11 0.15 0.14 0.17 0.20 0.20 0.21 0.21 0.21 0.20 0.20 0.17 0.16 0.13 0.10 0.09 0.09 0.09 0.10 0.12 0.13 0.14 0.15 0.16 0.17 0.18 0.18 0.19 0.19 0.20 0.22 0.22 0.21 0.20 0.19 0.19 0.19 0.20 0.20 0.20 0.20 0.21 0.21 0.21 0.20 0.20 0.19 0.19 0.19 0.19 0.20 0.22 0.24 0.24 0.25 0.25 0.26 0.27 0.27
0.07 0.07 0.09 0.09 0.08 0.14 0.12 0.11 0.12 0.09 0.11 0.10 0.12 0.09 0.08 0.08 0.06 0.05 0.06 0.05 0.06 0.07 0.08 0.10 0.08 0.07 0.06 0.10 0.15 0.17 0.19 0.21 0.21 0.21 0.21 0.19 0.18 0.18 0.16 0.12 0.08 0.09 0.09 0.08 0.09 0.12 0.13 0.14 0.15 0.16 0.17 0.18 0.18 0.19 0.20 0.21 0.22 0.22 0.22 0.21 0.20 0.19 0.19 0.20 0.21 0.21 0.21 0.22 0.22 0.22 0.22 0.21 0.21 0.20 0.20 0.20 0.20 0.20 0.21 0.23 0.23 0.24 0.25 0.25 0.26 0.26
0.08 0.08 0.10 0.12 0.11 0.13 0.10 0.13 0.15 0.11 0.13 0.10 0.11 0.13 0.09 0.09 0.12 0.07 0.08 0.08 0.08 0.08 0.07 0.08 0.07 0.09 0.10 0.15 0.18 0.19 0.21 0.21 0.20 0.18 0.17 0.17 0.16 0.13 0.10 0.08 0.09 0.08 0.08 0.09 0.11 0.12 0.13 0.15 0.16 0.17 0.17 0.18 0.19 0.20 0.20 0.21 0.23 0.22 0.21 0.20 0.20 0.20 0.21 0.21 0.22 0.22 0.22 0.22 0.23 0.23 0.23 0.22 0.22 0.22 0.22 0.22 0.22 0.22 0.22 0.22 0.23 0.23 0.24 0.25 0.26 0.26
0.09 0.07 0.11 0.11 0.12 0.11 0.11 0.13 0.13 0.13 0.06 0.09 0.11 0.09 0.10 0.14 0.14 0.11 0.10 0.12 0.10 0.10 0.08 0.09 0.09 0.09 0.15 0.17 0.19 0.20 0.20 0.18 0.16 0.15 0.14 0.13 0.11 0.09 0.08 0.09 0.08 0.08 0.08 0.11 0.12 0.13 0.14 0.15 0.16 0.17 0.18 0.18 0.19 0.20 0.21 0.23 0.23 0.22 0.21 0.20 0.20 0.21 0.22 0.23 0.23 0.23 0.23 0.23 0.23 0.24 0.24 0.24 0.23 0.22 0.22 0.22 0.22 0.22 0.23 0.23 0.23 0.24 0.24 0.25 0.26 0.26
0.08 0.07 0.11 0.10 0.08 0.12 0.13 0.15 0.15 0.15 0.14 0.12 0.08 0.11 0.13 0.18 0.16 0.11 0.07 0.08 0.08 0.07 0.07 0.08 0.08 0.09 0.10 0.09 0.18 0.19 0.16 0.15 0.15 0.14 0.12 0.10 0.08 0.08 0.08 0.08 0.08 0.08 0.10 0.12 0.13 0.14 0.15 0.16 0.17 0.18 0.18 0.19 0.20 0.21 0.23 0.23 0.23 0.22 0.21 0.21 0.22 0.22 0.23 0.23 0.24 0.24 0.24 0.23 0.24 0.24 0.24 0.24 0.24 0.24 0.24 0.23 0.23 0.23 0.23 0.23 0.24 0.24 0.24 0.24 0.26 0.26
0.14 0.07 0.08 0.10 0.09 0.10 0.12 0.13 0.12 0.14 0.17 0.11 0.11 0.17 0.09 0.08 0.08 0.12 0.11 0.07 0.07 0.06 0.07 0.08 0.09 0.09 0.10 0.10 0.15 0.14 0.15 0.15 0.14 0.12 0.10 0.08 0.08 0.08 0.08 0.08 0.08 0.10 0.12 0.12 0.13 0.14 0.15 0.16 0.17 0.18 0.19 0.20 0.22 0.23 0.23 0.22 0.21 0.22 0.22 0.23 0.24 0.24 0.24 0.24 0.25 0.25 0.25 0.25 0.24 0.24 0.24 0.24 0.25 0.25 0.25 0.25 0.25 0.24 0.23 0.23 0.23 0.24 0.24 0.25 0.26 0.26
0.15 0.08 0.07 0.10 0.09 0.09 0.10 0.09 0.07 0.10 0.16 0.15 0.16 0.13 0.16 0.13 0.11 0.09 0.10 0.10 0.11 0.08 0.08 0.07 0.09 0.08 0.11 0.14 0.14 0.15 0.16 0.14 0.13 0.11 0.08 0.08 0.08 0.08 0.08 0.08 0.09 0.11 0.12 0.13 0.14 0.15 0.16 0.17 0.18 0.19 0.20 0.22 0.22 0.22 0.22 0.21 0.21 0.22 0.24 0.26 0.25 0.24 0.24 0.24 0.25 0.25 0.25 0.25 0.25 0.25 0.25 0.25 0.25 0.26 0.26 0.26 0.26 0.25 0.25 0.24 0.24 0.24 0.24 0.25 0.26 0.26
0.11 0.12 0.06 0.08 0.10 0.09 0.07 0.09 0.09 0.10 0.10 0.11 0.11 0.11 0.13 0.13 0.15 0.13 0.13 0.11 0.09 0.09 0.09 0.08 0.07 0.08 0.11 0.16 0.16 0.15 0.14 0.14 0.12 0.09 0.08 0.08 0.08 0.08 0.08 0.09 0.11 0.12 0.12 0.13 0.14 0.15 0.16 0.17 0.19 0.20 0.23 0.23 0.22 0.21 0.21 0.21 0.23 0.25 0.25 0.24 0.24 0.24 0.24 0.24 0.24 0.25 0.25 0.25 0.25 0.25 0.26 0.26 0.26 0.26 0.26 0.26 0.26 0.26 0.26 0.26 0.26 0.26 0.26 0.27 0.26 0.27
0.11 0.11 0.07 0.08 0.08 0.07 0.08 0.11 0.12 0.13 0.14 0.12 0.12 0.11 0.13 0.12 0.10 0.08 0.08 0.14 0.12 0.10 0.09 0.08 0.07 0.09 0.13 0.18 0.17 0.14 0.13 0.12 0.11 0.10 0.08 0.08 0.08 0.09 0.09 0.10 0.11 0.12 0.13 0.14 0.15 0.16 0.17 0.18 0.20 0.22 0.21 0.20 0.20 0.21 0.21 0.24 0.25 0.24 0.23 0.23 0.24 0.24 0.24 0.24 0.24 0.25 0.25 0.25 0.25 0.25 0.26 0.26 0.27 0.27 0.27 0.26 0.26 0.26 0.26 0.26 0.27 0.27 0.27 0.27 0.27 0.27
0.15 0.12 0.10 0.07 0.07 0.08 0.10 0.13 0.16 0.16 0.15 0.15 0.15 0.13 0.15 0.15 0.14 0.11 0.08 0.10 0.12 0.12 0.12 0.12 0.10 0.09 0.16 0.18 0.15 0.14 0.13 0.11 0.10 0.09 0.09 0.09 0.09 0.09 0.10 0.12 0.13 0.13 0.14 0.15 0.15 0.16 0.18 0.20 0.21 0.21 0.20 0.20 0.20 0.21 0.24 0.24 0.23 0.23 0.23 0.23 0.24 0.24 0.24 0.25 0.25 0.26 0.25 0.24 0.24 0.24 0.25 0.26 0.27 0.27 0.27 0.26 0.26 0.26 0.26 0.26 0.27 0.27 0.27 0.27 0.27 0.27
0.17 0.10 0.08 0.08 0.09 0.10 0.13 0.16 0.16 0.17 0.16 0.14 0.15 0.17 0.16 0.13 0.14 0.12 0.12 0.14 0.11 0.12 0.10 0.09 0.08 0.08 0.13 0.16 0.14 0.14 0.11 0.11 0.10 0.09 0.09 0.09 0.10 0.11 0.12 0.12 0.12 0.13 0.14 0.15 0.16 0.17 0.19 0.20 0.20 0.19 0.19 0.19 0.21 0.23 0.22 0.22 0.23 0.23 0.22 0.23 0.24 0.24 0.25 0.25 0.26 0.26 0.25 0.24 0.24 0.25 0.25 0.26 0.27 0.27 0.26 0.26 0.26 0.26 0.26 0.27 0.27 0.27 0.27 0.27 0.27 0.27
0.09 0.09 0.09 0.07 0.07 0.08 0.10 0.13 0.14 0.16 0.15 0.13 0.14 0.15 0.16 0.16 0.15 0.15 0.15 0.15 0.11 0.10 0.10 0.10 0.07 0.08 0.11 0.13 0.13 0.11 0.10 0.10 0.10 0.10 0.10 0.10 0.11 0.11 0.12 0.12 0.13 0.14 0.15 0.15 0.16 0.17 0.18 0.18 0.18 0.18 0.19 0.21 0.22 0.22 0.21 0.21 0.22 0.22 0.23 0.24 0.25 0.24 0.24 0.25 0.26 0.25 0.24 0.24 0.24 0.25 0.26 0.26 0.26 0.26 0.26 0.26 0.26 0.26 0.26 0.27 0.27 0.28 0.27 0.28 0.27 0.28
0.11 0.10 0.09 0.07 0.06 0.06 0.06 0.07 0.07 0.09 0.11 0.14 0.15 0.15 0.16 0.15 0.14 0.14 0.12 0.12 0.09 0.11 0.12 0.10 0.09 0.09 0.11 0.11 0.10 0.10 0.10 0.10 0.10 0.10 0.11 0.11 0.11 0.11 0.12 0.13 0.13 0.14 0.15 0.15 0.16 0.17 0.17 0.18 0.19 0.19 0.20 0.22 0.21 0.20 0.21 0.22 0.22 0.22 0.21 0.22 0.22 0.22 0.23 0.22 0.23 0.23 0.23 0.23 0.24 0.25 0.26 0.26 0.26 0.26 0.26 0.26 0.27 0.27 0.27 0.28 0.28 0.28 0.28 0.28 0.27 0.27
0.12 0.12 0.10 0.09 0.09 0.08 0.08 0.09 0.11 0.13 0.14 0.12 0.13 0.14 0.15 0.16 0.17 0.17 0.16 0.12 0.10 0.11 0.10 0.11 0.12 0.11 0.09 0.09 0.09 0.09 0.09 0.10 0.10 0.10 0.10 0.11 0.11 0.12 0.13 0.13 0.13 0.14 0.15 0.16 0.16 0.16 0.17 0.18 0.18 0.19 0.21 0.21 0.20 0.21 0.22 0.21 0.20 0.20 0.20 0.20 0.22 0.23 0.23 0.23 0.23 0.23 0.24 0.24 0.25 0.24 0.24 0.25 0.26 0.26 0.26 0.27 0.27 0.28 0.29 0.29 0.29 0.28 0.28 0.28 0.27 0.26
0.12 0.11 0.11 0.10 0.10 0.11 0.12 0.12 0.13 0.15 0.13 0.14 0.13 0.14 0.15 0.16 0.16 0.16 0.13 0.11 0.14 0.12 0.08 0.10 0.10 0.09 0.09 0.09 0.08 0.09 0.10 0.11 0.10 0.11 0.11 0.11 0.12 0.13 0.13 0.13 0.14 0.14 0.15 0.15 0.15 0.15 0.16 0.17 0.19 0.19 0.19 0.19 0.20 0.21 0.21 0.20 0.19 0.19 0.20 0.21 0.22 0.23 0.23 0.24 0.24 0.25 0.25 0.25 0.24 0.24 0.24 0.26 0.26 0.26 0.26 0.27 0.28 0.28 0.28 0.28 0.28 0.28 0.28 0.27 0.26 0.26
0.11 0.10 0.11 0.11 0.11 0.12 0.13 0.13 0.14 0.14 0.15 0.14 0.14 0.15 0.14 0.16 0.17 0.14 0.14 0.15 0.13 0.11 0.09 0.09 0.09 0.09 0.08 0.09 0.09 0.09 0.10 0.10 0.11 0.12 0.13 0.12 0.13 0.13 0.13 0.13 0.13 0.14 0.14 0.15 0.16 0.16 0.16 0.17 0.19 0.19 0.19 0.20 0.20 0.20 0.19 0.19 0.19 0.20 0.20 0.21 0.22 0.23 0.23 0.23 0.22 0.22 0.22 0.23 0.24 0.25 0.26 0.26 0.26 0.27 0.27 0.27 0.27 0.27 0.27 0.27 0.28 0.28 0.27 0.26 0.25 0.26
0.12 0.11 0.11 0.13 0.11 0.12 0.12 0.13 0.14 0.13 0.13 0.14 0.14 0.15 0.16 0.16 0.17 0.16 0.15 0.14 0.12 0.10 0.09 0.09 0.09 0.08 0.09 0.09 0.10 0.10 0.11 0.11 0.12 0.14 0.13 0.11 0.11 0.12 0.12 0.12 0.13 0.13 0.15 0.15 0.16 0.16 0.16 0.17 0.18 0.19 0.19 0.20 0.20 0.19 0.19 0.18 0.19 0.19 0.19 0.20 0.21 0.22 0.22 0.22 0.22 0.22 0.23 0.23 0.24 0.25 0.25 0.26 0.27 0.27 0.27 0.26 0.27 0.27 0.27 0.27 0.27 0.26 0.25 0.25 0.25 0.25
0.12 0.10 0.13 0.13 0.11 0.11 0.12 0.14 0.14 0.13 0.13 0.12 0.16 0.16 0.16 0.17 0.16 0.15 0.13 0.12 0.10 0.09 0.09 0.09 0.09 0.09 0.10 0.11 0.11 0.11 0.12 0.14 0.13 0.12 0.11 0.10 0.10 0.12 0.12 0.12 0.12 0.13 0.14 0.15 0.16 0.16 0.16 0.17 0.17 0.18 0.19 0.19 0.19 0.18 0.19 0.19 0.20 0.19 0.19 0.20 0.20 0.21 0.22 0.22 0.21 0.21 0.22 0.23 0.24 0.24 0.25 0.26 0.27 0.27 0.26 0.25 0.26 0.27 0.26 0.26 0.25 0.25 0.25 0.25 0.26 0.25
0.13 0.11 0.14 0.13 0.11 0.10 0.12 0.12 0.11 0.13 0.13 0.14 0.14 0.14 0.16 0.15 0.13 0.13 0.12 0.11 0.10 0.09 0.09 0.09 0.09 0.09 0.10 0.11 0.11 0.12 0.12 0.11 0.11 0.12 0.11 0.10 0.11 0.12 0.13 0.12 0.13 0.13 0.14 0.15 0.16 0.16 0.16 0.16 0.17 0.19 0.19 0.18 0.18 0.18 0.18 0.18 0.19 0.19 0.18 0.19 0.20 0.20 0.21 0.20 0.19 0.19 0.21 0.23 0.23 0.24 0.24 0.24 0.24 0.24 0.25 0.25 0.25 0.25 0.25 0.25 0.24 0.24 0.24 0.25 0.25 0.25
0.13 0.12 0.11 0.11 0.10 0.09 0.11 0.12 0.12 0.12 0.13 0.12 0.12 0.15 0.15 0.14 0.13 0.12 0.11 0.10 0.10 0.10 0.09 0.09 0.09 0.10 0.11 0.12 0.11 0.10 0.11 0.11 0.11 0.11 0.11 0.10 0.11 0.11 0.12 0.13 0.13 0.14 0.15 0.16 0.16 0.16 0.16 0.16 0.18 0.18 0.18 0.18 0.17 0.18 0.18 0.18 0.18 0.19 0.19 0.19 0.19 0.18 0.17 0.18 0.19 0.20 0.21 0.22 0.23 0.24 0.24 0.24 0.24 0.24 0.24 0.24 0.24 0.24 0.24 0.24 0.23 0.23 0.24 0.24 0.25 0.25
0.14 0.13 0.12 0.14 0.10 0.10 0.11 0.11 0.12 0.11 0.09 0.09 0.15 0.17 0.16 0.14 0.12 0.11 0.10 0.10 0.10 0.10 0.10 0.10 0.10 0.11 0.11 0.12 0.12 0.11 0.11 0.11 0.12 0.12 0.11 0.10 0.11 0.12 0.12 0.12 0.13 0.14 0.15 0.15 0.16 0.16 0.17 0.17 0.18 0.18 0.18 0.17 0.18 0.18 0.18 0.18 0.18 0.19 0.19 0.18 0.19 0.19 0.19 0.19 0.20 0.20 0.21 0.21 0.22 0.23 0.23 0.24 0.24 0.24 0.23 0.23 0.23 0.23 0.23 0.23 0.23 0.24 0.24 0.24 0.25 0.25
0.13 0.13 0.12 0.14 0.11 0.10 0.12 0.11 0.10 0.09 0.09 0.14 0.17 0.19 0.18 0.14 0.13 0.11 0.11 0.11 0.11 0.11 0.10 0.10 0.11 0.11 0.12 0.13 0.12 0.12 0.13 0.13 0.13 0.11 0.10 0.11 0.11 0.10 0.11 0.12 0.12 0.13 0.14 0.15 0.16 0.16 0.16 0.17 0.18 0.18 0.17 0.16 0.17 0.17 0.17 0.18 0.19 0.19 0.18 0.18 0.18 0.19 0.19 0.19 0.20 0.20 0.21 0.21 0.22 0.22 0.23 0.23 0.23 0.22 0.22 0.22 0.22 0.22 0.23 0.23 0.23 0.23 0.24 0.24 0.24 0.25
0.13 0.13 0.13 0.12 0.12 0.12 0.11 0.11 0.09 0.09 0.11 0.15 0.18 0.18 0.16 0.13 0.12 0.11 0.10 0.11 0.10 0.11 0.11 0.11 0.12 0.13 0.13 0.12 0.13 0.14 0.13 0.13 0.13 0.12 0.11 0.10 0.11 0.10 0.11 0.12 0.13 0.13 0.14 0.15 0.16 0.16 0.16 0.18 0.17 0.17 0.17 0.17 0.17 0.17 0.17 0.18 0.18 0.18 0.17 0.18 0.18 0.18 0.18 0.19 0.19 0.20 0.20 0.21 0.21 0.22 0.23 0.23 0.22 0.22 0.22 0.21 0.21 0.21 0.22 0.22 0.23 0.23 0.24 0.24 0.25 0.25
0.15 0.15 0.13 0.11 0.13 0.10 0.10 0.11 0.10 0.12 0.12 0.15 0.15 0.14 0.14 0.11 0.11 0.10 0.09 0.10 0.11 0.12 0.13 0.12 0.12 0.12 0.13 0.13 0.13 0.14 0.13 0.12 0.11 0.10 0.11 0.11 0.11 0.11 0.11 0.12 0.13 0.13 0.14 0.16 0.16 0.16 0.18 0.18 0.18 0.17 0.16 0.17 0.17 0.16 0.17 0.18 0.17 0.17 0.17 0.18 0.18 0.18 0.18 0.19 0.19 0.19 0.20 0.20 0.21 0.22 0.23 0.22 0.21 0.21 0.21 0.21 0.21 0.21 0.21 0.22 0.22 0.24 0.25 0.24 0.24 0.24
0.17 0.14 0.14 0.12 0.11 0.13 0.11 0.10 0.10 0.10 0.09 0.11 0.14 0.15 0.14 0.13 0.13 0.12 0.11 0.10 0.12 0.13 0.12 0.12 0.12 0.12 0.12 0.13 0.13 0.13 0.13 0.11 0.09 0.09 0.10 0.11 0.12 0.12 0.12 0.12 0.12 0.13 0.14 0.15 0.16 0.17 0.18 0.18 0.17 0.17 0.17 0.16 0.16 0.16 0.17 0.17 0.16 0.17 0.17 0.17 0.17 0.17 0.18 0.18 0.18 0.19 0.20 0.20 0.21 0.22 0.22 0.22 0.21 0.21 0.21 0.22 0.22 0.22 0.22 0.23 0.24 0.24 0.25 0.24 0.24 0.24
0.17 0.17 0.15 0.12 0.11 0.12 0.11 0.10 0.10 0.09 0.10 0.14 0.14 0.13 0.13 0.14 0.12 0.12 0.11 0.09 0.12 0.12 0.12 0.13 0.13 0.12 0.13 0.13 0.13 0.13 0.11 0.09 0.09 0.10 0.11 0.12 0.12 0.13 0.13 0.12 0.12 0.13 0.14 0.15 0.16 0.17 0.17 0.17 0.17 0.16 0.16 0.16 0.16 0.16 0.17 0.16 0.17 0.16 0.16 0.16 0.17 0.17 0.17 0.17 0.18 0.19 0.19 0.20 0.22 0.22 0.22 0.21 0.21 0.21 0.22 0.22 0.23 0.23 0.23 0.24 0.24 0.25 0.26 0.26 0.26 0.26
0.16 0.15 0.14 0.12 0.12 0.12 0.11 0.11 0.10 0.10 0.10 0.13 0.13 0.13 0.13 0.13 0.12 0.12 0.09 0.08 0.11 0.12 0.14 0.14 0.13 0.13 0.14 0.14 0.14 0.13 0.11 0.09 0.09 0.11 0.13 0.13 0.13 0.13 0.12 0.12 0.12 0.13 0.13 0.15 0.16 0.17 0.17 0.16 0.16 0.16 0.16 0.16 0.16 0.16 0.16 0.16 0.16 0.16 0.16 0.16 0.17 0.17 0.17 0.17 0.18 0.19 0.20 0.21 0.22 0.22 0.22 0.21 0.21 0.22 0.22 0.23 0.24 0.24 0.25 0.26 0.25 0.25 0.25 0.26 0.27 0.28
0.13 0.13 0.14 0.11 0.12 0.12 0.12 0.11 0.11 0.11 0.13 0.13 0.13 0.13 0.13 0.13 0.12 0.09 0.08 0.10 0.13 0.14 0.14 0.14 0.14 0.15 0.14 0.14 0.13 0.11 0.12 0.12 0.12 0.13 0.13 0.13 0.13 0.12 0.12 0.12 0.13 0.13 0.14 0.15 0.16 0.17 0.16 0.16 0.16 0.16 0.16 0.16 0.16 0.16 0.16 0.16 0.16 0.16 0.16 0.16 0.16 0.16 0.17 0.18 0.18 0.19 0.20 0.21 0.21 0.22 0.21 0.21 0.21 0.21 0.22 0.24 0.24 0.25 0.26 0.26 0.25 0.26 0.26 0.27 0.29 0.30
0.13 0.13 0.14 0.13 0.12 0.11 0.12 0.11 0.10 0.11 0.13 0.13 0.13 0.13 0.14 0.12 0.09 0.09 0.11 0.14 0.14 0.14 0.14 0.15 0.15 0.15 0.15 0.15 0.14 0.13 0.13 0.13 0.13 0.13 0.12 0.12 0.12 0.12 0.12 0.12 0.12 0.13 0.14 0.15 0.17 0.16 0.16 0.16 0.16 0.16 0.16 0.16 0.16 0.16 0.16 0.16 0.15 0.15 0.16 0.16 0.16 0.16 0.17 0.18 0.19 0.19 0.20 0.20 0.21 0.21 0.21 0.21 0.22 0.22 0.23 0.24 0.25 0.25 0.25 0.26 0.26 0.26 0.27 0.29 0.30 0.30
0.13 0.12 0.11 0.11 0.13 0.13 0.12 0.11 0.10 0.09 0.12 0.13 0.13 0.13 0.13 0.10 0.11 0.13 0.14 0.15 0.15 0.15 0.15 0.15 0.15 0.15 0.15 0.14 0.14 0.13 0.13 0.12 0.13 0.12 0.12 0.12 0.12 0.11 0.12 0.12 0.12 0.12 0.13 0.14 0.15 0.15 0.15 0.15 0.16 0.16 0.15 0.16 0.16 0.16 0.16 0.15 0.15 0.15 0.15 0.15 0.16 0.17 0.17 0.18 0.19 0.19 0.19 0.20 0.21 0.21 0.21 0.21 0.21 0.22 0.23 0.24 0.25 0.25 0.25 0.25 0.26 0.27 0.29 0.30 0.30 0.29
0.16 0.12 0.12 0.13 0.14 0.11 0.11 0.09 0.09 0.10 0.11 0.14 0.14 0.11 0.12 0.13 0.14 0.15 0.15 0.14 0.15 0.15 0.15 0.15 0.15 0.15 0.15 0.14 0.13 0.13 0.13 0.12 0.12 0.12 0.12 0.11 0.11 0.12 0.12 0.12 0.12 0.12 0.13 0.14 0.15 0.15 0.15 0.15 0.15 0.15 0.15 0.16 0.16 0.16 0.15 0.15 0.15 0.15 0.15 0.15 0.16 0.17 0.18 0.18 0.18 0.18 0.19 0.20 0.20 0.21 0.21 0.21 0.21 0.22 0.23 0.24 0.25 0.25 0.25 0.25 0.26 0.27 0.30 0.31 0.30 0.28
0.16 0.13 0.14 0.12 0.15 0.12 0.11 0.12 0.12 0.13 0.14 0.15 0.14 0.14 0.14 0.15 0.16 0.17 0.16 0.15 0.15 0.15 0.16 0.15 0.14 0.15 0.15 0.15 0.13 0.13 0.12 0.12 0.12 0.12 0.11 0.11 0.11 0.11 0.11 0.12 0.12 0.12 0.13 0.13 0.14 0.15 0.15 0.15 0.15 0.15 0.15 0.15 0.15 0.15 0.16 0.16 0.15 0.15 0.15 0.16 0.17 0.17 0.17 0.17 0.18 0.18 0.18 0.19 0.20 0.20 0.21 0.21 0.21 0.22 0.23 0.24 0.24 0.24 0.24 0.24 0.26 0.27 0.30 0.30 0.29 0.28
0.16 0.17 0.18 0.17 0.15 0.16 0.16 0.15 0.15 0.15 0.15 0.14 0.15 0.15 0.16 0.17 0.17 0.17 0.16 0.16 0.16 0.16 0.15 0.14 0.15 0.15 0.15 0.14 0.13 0.12 0.12 0.12 0.11 0.11 0.11 0.11 0.10 0.11 0.11 0.11 0.12 0.12 0.13 0.13 0.14 0.15 0.15 0.15 0.15 0.15 0.15 0.15 0.15 0.16 0.16 0.16 0.15 0.15 0.15 0.16 0.17 0.17 0.17 0.17 0.17 0.17 0.18 0.19 0.19 0.20 0.21 0.20 0.21 0.22 0.22 0.23 0.24 0.24 0.24 0.24 0.26 0.28 0.29 0.29 0.28 0.27
0.15 0.18 0.17 0.14 0.15 0.14 0.12 0.15 0.14 0.14 0.15 0.14 0.14 0.15 0.17 0.17 0.17 0.17 0.16 0.16 0.16 0.15 0.15 0.15 0.15 0.15 0.14 0.13 0.12 0.11 0.11 0.11 0.11 0.11 0.10 0.10 0.10 0.10 0.10 0.11 0.11 0.12 0.12 0.13 0.14 0.15 0.15 0.15 0.15 0.15 0.15 0.15 0.15 0.15 0.16 0.16 0.16 0.16 0.16 0.16 0.17 0.17 0.17 0.17 0.17 0.17 0.18 0.18 0.19 0.20 0.21 0.20 0.20 0.21 0.21 0.23 0.23 0.23 0.24 0.25 0.27 0.28 0.29 0.29 0.27 0.27
0.14 0.19 0.16 0.15 0.15 0.14 0.13 0.13 0.15 0.16 0.16 0.15 0.16 0.16 0.16 0.16 0.17 0.17 0.17 0.17 0.16 0.15 0.15 0.15 0.15 0.14 0.14 0.12 0.11 0.11 0.11 0.11 0.11 0.10 0.10 0.10 0.10 0.10 0.10 0.10 0.11 0.11 0.12 0.13 0.14 0.15 0.14 0.15 0.15 0.15 0.15 0.15 0.15 0.15 0.16 0.16 0.16 0.16 0.16 0.16 0.17 0.17 0.17 0.17 0.17 0.17 0.18 0.19 0.19 0.20 0.21 0.20 0.20 0.20 0.21 0.22 0.22 0.22 0.23 0.24 0.27 0.29 0.29 0.28 0.27 0.26
0.16 0.18 0.14 0.15 0.14 0.14 0.15 0.15 0.15 0.15 0.16 0.16 0.17 0.16 0.17 0.17 0.17 0.17 0.17 0.16 0.15 0.14 0.14 0.15 0.15 0.14 0.13 0.12 0.12 0.11 0.11 0.11 0.11 0.10 0.10 0.10 0.10 0.10 0.10 0.10 0.11 0.11 0.12 0.12 0.13 0.14 0.14 0.15 0.15 0.14 0.15 0.15 0.15 0.15 0.16 0.16 0.16 0.16 0.16 0.16 0.17 0.17 0.17 0.17 0.17 0.17 0.18 0.19 0.20 0.20 0.20 0.20 0.20 0.20 0.21 0.21 0.21 0.23 0.23 0.24 0.26 0.29 0.29 0.30 0.30 0.29
0.17 0.14 0.16 0.16 0.14 0.13 0.13 0.13 0.16 0.13 0.13 0.14 0.16 0.17 0.17 0.17 0.18 0.17 0.17 0.15 0.15 0.15 0.15 0.14 0.13 0.13 0.12 0.12 0.12 0.11 0.11 0.11 0.11 0.11 0.10 0.10 0.10 0.10 0.10 0.10 0.10 0.11 0.11 0.12 0.13 0.14 0.15 0.15 0.14 0.14 0.15 0.15 0.15 0.15 0.15 0.16 0.16 0.16 0.16 0.17 0.17 0.17 0.16 0.17 0.17 0.17 0.18 0.19 0.19 0.20 0.20 0.20 0.20 0.20 0.21 0.21 0.21 0.21 0.22 0.26 0.28 0.30 0.29 0.29 0.30 0.30
0.16 0.16 0.16 0.14 0.14 0.13 0.14 0.16 0.16 0.16 0.16 0.16 0.17 0.17 0.18 0.18 0.18 0.17 0.16 0.15 0.15 0.15 0.15 0.14 0.13 0.12 0.12 0.11 0.11 0.12 0.11 0.11 0.11 0.10 0.10 0.09 0.09 0.10 0.10 0.10 0.10 0.10 0.11 0.12 0.12 0.14 0.14 0.14 0.15 0.14 0.14 0.15 0.15 0.15 0.15 0.15 0.16 0.16 0.16 0.17 0.17 0.17 0.17 0.17 0.17 0.17 0.18 0.19 0.19 0.20 0.20 0.20 0.20 0.20 0.21 0.21 0.20 0.22 0.22 0.22 0.26 0.30 0.31 0.30 0.30 0.30
Wind_Speed
11 11 12 13 14 15 15 15 15 15 15 16 17 18 19 20 21 22 22 21 22 22 20 21 22 22 22 22 22 23 24 25 25 26 27 28 28 28 29 30 31 31 32 33 34 34 35 36 37 37 38 39 40 40 40 40 41 41 41 41 40 40 40 39 39 39 39 39 39 39 39 39 39 39 39 39 39 39 40 40 41 42 42 42 42 42
12 13 13 14 14 15 15 15 15 15 16 16 18 20 20 21 22 24 23 21 22 23 22 22 23 23 23 23 23 24 25 26 27 27 27 28 29 30 31 32 32 32 33 34 35 36 37 37 38 39 40 41 42 43 42 43 43 43 43 43 43 42 42 41 41 41 41 41 41 41 41 41 41 41 40 40 40 41 41 42 42 43 43 44 44 45
13 14 14 14 14 14 15 16 16 15 16 17 19 21 22 23 24 24 23 22 22 24 24 23 25 24 23 24 24 24 25 26 27 26 27 29 30 31 32 32 33 34 35 36 37 38 39 40 41 41 42 44 45 45 45 46 46 46 45 45 45 45 44 43 43 43 43 43 43 44 44 43 43 43 42 42 42 42 42 43 43 44 44 45 45 46
13 14 15 14 14 14 15 16 16 16 16 17 20 22 23 25 25 24 25 25 25 25 25 26 26 24 23 23 24 24 26 27 27 27 29 30 31 31 32 33 34 35 36 37 38 40 41 42 43 44 46 47 48 48 49 49 49 48 48 48 48 48 47 46 46 46 45 46 46 45 46 45 45 45 44 44 43 43 43 44 44 44 45 45 46 46
13 14 14 14 14 15 16 17 18 18 18 18 19 22 25 26 25 26 27 28 27 24 25 27 26 23 23 24 24 25 27 27 28 30 31 31 32 32 33 34 35 36 38 39 40 42 43 44 45 47 49 50 51 52 52 52 52 52 52 52 52 51 51 50 50 49 49 48 48 48 48 48 47 47 46 45 44 44 44 45 44 45 45 46 46 46
14 14 15 15 16 17 17 17 19 19 19 19 20 22 25 26 26 27 28 29 28 25 25 27 27 25 24 25 26 27 27 28 30 32 32 32 33 34 35 36 37 38 39 40 42 44 45 47 49 51 53 54 55 56 57 56 56 57 57 56 55 55 54 54 53 52 52 51 50 50 50 50 49 49 48 47 47 47 46 46 46 46 47 47 47 47
14 14 15 16 16 17 17 18 19 19 20 20 21 23 25 26 27 28 27 27 27 27 27 25 26 28 27 26 26 27 28 29 32 33 33 34 35 36 37 38 39 40 41 42 44 46 48 51 53 56 57 58 59 60 60 59 59 59 59 58 57 56 55 55 54 53 53 53 52 52 52 52 52 51 50 50 50 50 49 49 49 48 48 48 48 47
15 15 15 16 17 18 19 19 19 19 20 21 23 25 27 27 27 27 25 25 27 29 26 24 26 30 30 27 26 28 30 31 33 34 35 36 38 39 39 40 41 42 43 45 47 50 52 55 58 60 61 62 62 63 62 60 59 59 58 57 56 55 54 53 53 53 53 53 54 54 53 53 52 52 52 52 51 50 50 50 50 49 49 49 49 49
15 16 17 17 18 19 19 20 20 20 21 22 24 27 27 27 27 25 24 26 27 28 25 25 28 30 32 30 27 30 32 33 34 36 37 39 39 40 40 41 43 44 46 48 51 54 57 60 62 62 63 63 63 62 61 60 59 58 57 56 54 53 52 51 52 53 54 54 55 55 55 54 54 54 54 54 54 53 52 52 52 52 52 51 51 50
15 16 16 17 18 19 20 21 20 19 21 24 26 28 26 25 26 24 24 27 27 26 25 28 30 31 33 33 30 31 33 34 36 37 39 40 41 42 42 43 45 47 49 52 54 57 60 63 64 63 63 63 61 59 58 57 56 56 55 54 53 53 52 52 52 53 54 55 55 55 55 56 56 56 56 56 57 56 56 56 55 55 54 54 53 52
15 16 16 17 18 19 21 21 20 20 23 25 27 29 27 25 26 23 24 29 27 26 27 30 32 32 33 34 32 32 33 35 37 38 40 42 42 43 44 46 48 50 53 55 58 61 63 64 64 63 62 61 59 56 54 52 52 51 49 49 49 50 50 51 51 52 53 53 53 53 53 55 56 57 57 58 58 58 57 57 57 56 56 55 55 54
14 15 17 18 18 20 21 21 20 21 23 25 28 31 30 27 27 25 26 29 27 28 29 30 33 32 32 33 33 33 34 35 37 39 41 43 44 45 47 49 51 53 56 59 61 62 63 64 63 61 60 58 55 53 50 48 47 45 43 42 44 45 45 46 47 48 50 50 50 51 52 53 54 55 56 57 58 58 58 58 57 56 55 55 55 54
14 15 19 18 19 21 22 22 22 22 24 27 29 31 30 29 28 27 29 29 28 30 31 31 34 34 32 33 33 34 36 37 38 39 41 44 46 49 50 52 54 56 59 61 62 63 63 62 60 59 57 55 52 50 47 45 43 40 38 39 41 41 42 42 42 43 44 45 46 48 49 50 51 52 54 55 56 57 57 58 58 56 55 55 54 54
15 15 19 20 20 21 23 24 24 24 26 28 30 30 29 28 28 28 29 30 30 33 34 34 34 34 35 35 34 36 38 39 39 40 43 46 49 51 53 55 57 59 60 61 62 62 60 59 58 56 54 52 49 47 45 42 40 37 37 39 40 41 41 40 40 40 40 41 42 43 44 45 46 47 48 49 51 53 54 55 56 56 55 54 54 54
17 16 19 21 22 22 23 24 25 25 25 27 28 28 27 27 26 27 28 29 32 36 38 37 33 34 37 36 35 37 38 40 41 43 46 48 49 52 54 57 59 60 61 62 61 60 59 58 56 54 52 50 47 45 42 39 37 37 39 40 41 41 40 39 38 38 38 39 39 39 40 41 41 42 42 43 44 46 48 51 53 54 54 54 53 53
18 17 18 21 22 23 23 23 24 25 24 26 27 27 28 28 25 27 29 30 32 35 36 35 33 35 37 36 36 37 38 40 44 46 48 50 51 54 57 58 60 61 62 62 60 58 57 56 54 52 50 47 44 42 40 37 37 39 40 41 41 41 40 39 38 37 37 36 36 37 37 37 38 38 39 39 40 41 42 45 47 50 51 52 52 52
18 17 18 21 22 22 23 24 25 25 25 27 28 29 30 28 25 27 30 30 31 33 34 35 37 39 38 36 36 36 39 43 46 48 51 52 55 57 58 59 61 63 63 61 58 57 56 55 53 51 47 44 42 40 38 38 40 41 42 42 41 40 38 37 36 35 34 34 34 34 34 34 35 35 35 36 37 38 38 40 42 44 47 48 50 51
19 18 18 21 23 22 22 23 23 25 27 27 28 31 31 27 24 27 30 31 32 33 34 37 41 42 40 37 35 38 43 46 47 50 53 56 57 58 58 61 63 63 61 59 57 55 55 53 51 48 45 43 40 38 38 40 41 41 41 41 39 38 37 35 34 33 32 32 32 32 32 32 32 33 33 33 34 35 36 36 37 39 42 44 47 49
19 18 18 20 23 22 21 22 23 24 27 27 28 31 30 26 26 29 30 31 32 33 35 39 42 41 39 38 39 42 45 47 49 52 55 57 57 58 61 64 64 62 60 57 55 54 53 51 49 46 43 40 38 38 40 42 41 40 39 37 36 36 35 34 32 32 31 31 31 31 32 32 32 32 32 32 33 33 34 34 35 36 37 38 41 43
19 18 18 21 24 23 22 23 24 25 26 27 28 30 29 27 28 31 30 30 32 34 36 40 42 39 37 39 42 44 46 49 52 54 56 57 58 60 63 64 62 60 58 56 55 54 52 50 47 43 40 39 40 41 41 41 39 38 36 35 36 35 34 32 32 32 32 32 32 32 32 32 32 32 32 32 33 33 33 33 34 34 34 35 36 37
19 18 20 23 25 23 23 24 26 26 27 29 31 31 30 29 30 31 30 29 31 34 35 38 41 40 39 40 41 44 49 52 53 54 56 57 60 63 64 62 60 58 57 55 54 53 51 49 45 40 39 41 42 41 41 39 38 37 36 36 35 33 33 33 32 32 32 32 32 32 32 32 32 32 32 32 33 33 33 33 33 33 34 34 34 35
19 19 21 25 26 25 24 25 26 26 27 29 32 31 30 31 32 32 31 30 31 33 34 37 40 42 41 39 41 47 51 52 52 55 57 59 62 64 63 61 59 57 56 55 54 52 49 46 42 40 42 43 43 41 40 39 39 38 36 35 33 33 34 34 33 33 33 32 32 32 31 31 31 31 31 32 32 32 32 33 33 33 34 35 35 35
20 20 22 25 26 25 25 25 26 26 27 30 31 31 31 32 32 32 33 34 34 34 36 38 40 42 40 39 44 51 53 52 53 56 59 61 64 64 62 60 58 56 55 55 53 50 47 44 42 43 44 43 41 41 40 39 38 37 36 35 35 35 35 35 34 33 33 33 33 32 32 31 31 31 31 31 32 32 32 32 33 33 34 35 35 36
20 21 24 26 25 24 24 25 27 26 28 30 32 32 32 32 33 33 33 35 36 36 38 40 41 42 43 43 49 55 55 53 54 58 61 62 63 62 61 60 58 56 56 54 51 48 45 44 43 43 44 42 40 40 39 38 37 37 37 36 36 36 35 35 34 34 34 34 34 33 32 32 32 32 32 32 32 32 32 33 33 33 34 35 36 36
21 22 25 28 27 26 25 26 28 29 30 31 31 31 32 32 33 33 33 35 36 36 38 39 41 46 49 51 55 57 54 54 57 60 62 62 61 61 61 60 57 56 55 53 49 47 45 45 44 43 42 41 40 39 38 38 37 37 37 36 37 38 38 37 36 36 36 36 35 33 32 32 32 32 32 32 31 32 32 33 33 34 34 35 35 36
22 23 25 27 26 27 28 28 29 31 32 31 30 31 33 33 33 34 34 35 37 40 41 39 42 50 56 57 59 57 53 55 60 62 63 62 61 61 61 59 57 56 53 51 48 47 46 44 43 42 41 40 40 40 39 38 38 38 38 39 40 40 40 39 38 37 37 35 33 32 32 32 31 31 31 31 31 32 32 33 33 34 34 34 35 36
23 23 25 26 26 27 28 29 31 33 33 32 32 31 32 33 34 35 35 36 40 44 44 41 44 53 59 60 60 57 55 56 60 62 63 63 62 62 60 58 57 55 52 49 47 47 46 44 43 42 42 42 42 40 38 39 40 41 41 40 39 39 38 37 36 35 34 33 32 32 31 31 30 30 30 30 31 32 32 33 33 34 34 34 35 35
23 23 25 26 27 28 29 31 33 33 32 34 34 31 31 33 34 35 36 38 41 42 44 47 50 53 58 61 60 58 57 58 60 62 63 64 63 62 60 59 57 54 51 48 47 47 46 45 43 43 44 44 42 40 40 42 41 40 38 38 37 36 35 34 33 33 32 32 32 31 30 30 29 29 30 30 31 32 32 33 33 33 34 34 34 35
24 24 26 27 28 29 30 32 33 32 32 33 31 30 31 33 34 36 38 41 42 41 45 53 55 54 56 58 58 58 60 61 61 62 63 64 64 62 61 59 56 54 51 49 48 47 46 45 44 45 45 44 42 41 42 42 39 36 36 36 36 35 33 32 33 32 32 31 31 30 29 29 29 29 29 30 31 32 32 32 33 33 33 33 33 33
25 26 27 28 30 30 30 31 32 32 32 31 28 30 33 34 34 37 40 43 45 45 48 53 55 55 54 55 57 60 62 61 60 60 62 64 64 63 61 59 56 54 51 49 48 47 46 45 45 45 44 42 41 40 40 38 36 35 36 36 35 34 33 32 32 32 31 30 29 28 29 29 28 29 29 30 31 31 32 32 32 32 31 31 30 29
27 28 28 29 30 30 30 32 33 33 32 29 27 31 35 36 37 39 40 44 47 50 52 53 54 53 52 54 59 61 61 60 60 61 63 63 63 62 60 57 56 54 51 49 47 46 45 46 45 44 42 42 41 40 38 37 35 35 36 36 35 34 33 32 33 32 31 29 28 28 28 28 28 28 29 30 31 31 32 32 31 30 28 27 26 25
28 29 29 30 31 30 31 35 37 33 29 27 29 33 36 37 39 40 41 44 47 50 53 53 52 50 52 57 62 62 62 62 61 62 63 63 62 60 57 56 56 55 51 49 47 46 46 46 44 42 42 44 43 40 38 36 36 35 36 35 35 35 34 34 33 32 30 29 28 28 27 27 27 28 29 30 30 31 31 30 28 26 24 23 22 21
28 29 30 31 32 32 35 38 37 31 27 28 31 34 37 39 42 44 45 47 48 48 49 50 50 52 57 60 62 63 65 64 63 63 63 63 61 58 55 56 57 54 50 48 47 46 46 45 43 42 44 46 44 40 37 37 36 35 35 35 36 36 35 34 32 31 30 29 28 28 27 27 27 28 28 29 29 29 28 26 24 22 21 21 21 20
28 30 30 30 32 34 38 40 36 30 29 32 32 34 38 41 44 47 48 49 49 48 47 49 52 56 59 60 61 63 64 63 63 63 62 62 60 58 57 57 56 53 50 48 47 46 46 45 43 43 47 47 43 39 38 37 35 35 35 36 36 35 34 32 31 30 30 29 28 28 28 28 27 28 28 28 27 26 24 23 22 20 20 20 20 20
29 30 30 31 32 33 37 39 35 31 32 32 31 34 38 41 45 49 49 48 48 49 49 51 54 58 60 61 61 63 64 64 64 63 62 61 60 59 59 58 55 52 50 48 47 47 47 45 44 46 48 46 41 39 38 36 34 35 36 36 35 34 33 32 31 30 30 29 29 28 28 28 28 27 27 26 24 23 22 21 20 19 19 19 20 21
29 30 30 31 32 33 35 35 32 32 33 32 31 35 40 43 47 50 50 50 49 47 49 53 56 59 61 62 62 62 64 65 63 61 60 60 60 60 59 57 54 52 49 48 47 47 47 45 45 48 48 43 40 39 37 35 35 36 36 35 34 34 33 31 31 30 29 29 28 28 28 28 28 27 25 23 22 21 21 20 19 19 19 20 21 22
29 29 31 32 32 33 34 34 32 33 33 32 33 37 41 45 47 48 50 52 48 45 50 56 59 61 63 64 64 64 65 65 61 59 59 60 61 60 59 56 54 51 49 48 47 47 46 44 46 49 47 43 41 39 36 35 36 37 36 34 34 33 32 31 30 30 29 29 28 28 28 28 27 25 23 21 21 21 20 19 18 19 19 21 22 23
30 30 31 32 32 33 34 34 34 34 32 32 35 39 43 45 46 47 49 49 45 48 56 60 60 63 65 65 65 66 64 61 59 59 61 62 62 60 58 56 53 50 48 48 47 46 45 45 48 48 45 42 40 38 36 36 37 36 35 34 33 32 31 31 30 29 29 29 28 28 28 27 25 24 22 21 21 20 19 19 18 19 20 21 23 24
30 31 31 32 33 33 34 33 32 32 33 34 39 43 45 46 48 48 46 44 47 54 60 61 62 64 65 65 66 65 61 57 58 60 63 64 63 60 58 56 53 49 47 47 47 46 46 47 48 47 44 42 40 37 36 37 37 36 34 34 33 31 31 31 30 30 29 28 28 28 27 25 23 22 21 20 20 20 19 18 19 19 21 22 23 25
31 31 32 33 33 34 34 33 32 32 33 36 41 46 47 48 49 47 42 45 53 60 61 61 63 63 64 64 64 62 58 57 59 63 65 65 62 60 57 55 52 49 47 47 46 46 47 48 48 46 44 41 39 38 37 37 36 35 34 34 32 31 31 31 30 29 28 28 28 27 26 23 22 21 21 21 20 19 18 18 19 20 21 23 24 25
31 32 32 33 34 35 34 34 34 33 34 39 43 47 49 49 48 44 44 50 57 61 61 61 62 62 63 64 62 60 59 60 62 64 65 64 61 59 57 54 51 48 47 47 46 46 47 47 46 45 43 40 39 38 37 36 36 35 34 33 32 32 32 31 30 29 27 27 27 27 25 23 21 20 20 20 19 18 18 18 19 20 22 23 24 25
31 32 32 33 35 35 34 35 36 34 35 41 47 48 48 48 45 45 49 54 58 60 61 61 61 61 62 63 62 61 62 63 63 64 64 62 60 58 56 54 51 47 46 46 46 47 47 47 46 44 42 40 39 38 36 36 36 35 34 33 32 32 32 31 30 28 27 26 26 26 24 22 21 20 19 19 18 17 18 18 19 21 22 23 24 24
31 33 33 34 35 35 34 34 35 35 39 45 48 48 47 46 46 49 53 55 57 59 60 60 60 61 62 63 63 63 64 64 64 63 63 61 59 57 56 53 50 47 46 46 46 47 47 46 45 43 42 40 39 37 37 36 35 34 33 33 33 32 31 30 29 27 26 26 25 24 23 21 20 19 18 17 17 18 18 18 19 19 20 22 22 22
30 32 33 34 34 35 34 34 34 38 43 47 47 46 47 47 49 51 53 55 56 58 58 59 60 61 62 63 64 64 64 64 64 63 63 61 58 57 55 53 50 47 46 46 46 47 47 46 45 43 41 40 38 37 36 35 34 34 34 34 33 32 30 29 28 26 25 24 24 23 22 20 19 18 17 17 17 18 18 18 17 18 19 20 20 20
30 32 34 34 34 35 36 36 38 42 45 46 46 47 49 50 50 52 54 55 56 57 57 58 60 62 63 64 65 65 64 63 64 63 62 60 58 56 54 52 49 47 45 46 46 46 46 46 45 43 41 39 38 37 35 34 34 34 34 34 33 32 30 28 26 25 24 23 22 21 20 19 18 17 16 16 17 17 16 16 16 16 18 18 18 19
32 32 33 35 36 37 37 38 40 43 45 46 46 47 48 49 51 53 54 55 56 57 57 58 60 63 64 65 65 64 63 63 64 63 61 59 57 56 54 51 48 46 45 45 46 46 46 45 44 43 41 39 38 37 35 34 34 34 34 34 33 31 29 26 24 23 22 21 21 20 20 19 17 15 15 16 16 15 14 14 14 15 16 17 17 18
32 33 34 36 38 39 39 39 42 44 46 47 48 48 49 51 52 53 54 55 57 58 58 59 61 64 65 65 65 65 64 63 63 62 61 59 57 55 53 50 47 45 44 45 45 46 46 45 44 43 42 40 38 37 35 34 33 33 34 33 31 29 27 25 22 21 21 20 19 19 19 18 16 15 15 16 15 14 13 13 13 14 15 15 16 17
32 33 35 37 38 39 40 42 44 46 46 46 47 49 51 53 54 55 56 57 58 60 61 61 63 64 64 64 64 64 63 63 62 62 60 58 56 54 52 49 47 45 44 44 45 46 45 44 44 43 42 40 38 36 35 34 33 33 33 32 30 28 25 23 21 20 19 18 18 18 18 17 16 15 15 15 14 13 12 12 12 13 13 15 16 15
33 34 36 38 40 40 41 44 46 47 45 45 47 50 52 54 56 57 57 58 59 61 62 63 64 64 64 64 63 63 63 62 62 61 59 57 55 54 52 50 47 45 44 44 44 44 45 44 44 43 42 40 38 36 35 34 33 33 32 31 28 26 23 21 20 19 18 18 18 17 16 16 16 15 15 13 12 12 11 11 11 12 12 14 15 14
34 36 37 39 41 41 43 45 47 47 47 48 50 53 54 55 56 57 58 58 59 60 61 63 65 65 65 64 63 62 62 62 61 61 59 56 55 54 52 50 47 45 44 44 43 43 44 44 43 42 41 40 37 35 34 33 33 33 32 29 27 24 22 20 19 18 17 17 17 17 16 16 16 15 13 12 11 10 10 10 9 10 12 14 14 13
34 36 38 40 41 42 44 46 46 47 48 49 52 53 54 56 56 57 57 58 59 60 62 63 65 65 65 64 63 63 62 62 61 60 58 56 55 53 52 50 48 45 43 43 43 43 44 44 43 42 41 39 36 34 34 33 33 32 31 28 26 23 21 19 18 17 17 17 17 16 16 16 15 13 11 10 9 9 10 10 8 9 11 13 13 12
Wind_Direction
356 360 4 1 354 351 352 352 350 348 346 345 343 341 339 339 338 336 339 342 340 335 333 335 334 334 331 328 328 327 328 331 329 326 325 323 321 319 318 317 315 314 312 310 310 310 309 309 309 308 307 306 306 304 302 301 300 298 296 294 292 290 288 286 284 283 282 280 280 278 277 276 274 273 271 270 269 268 267 266 265 264 263 262 261 260
358 9 6 357 350 349 350 350 347 346 345 342 342 341 340 340 336 334 337 339 338 336 333 331 332 333 330 326 327 326 328 330 328 326 326 324 321 318 317 317 315 313 312 312 311 310 309 309 308 307 305 305 304 303 300 298 298 296 294 293 291 289 288 286 284 282 280 279 278 276 275 274 273 272 270 269 268 268 267 267 266 265 264 263 262 261
5 9 1 353 352 350 350 349 347 345 343 341 342 342 340 340 335 332 337 339 335 333 332 331 330 330 329 326 325 326 326 326 325 324 323 322 320 317 316 315 314 313 312 312 312 311 310 309 308 306 305 304 303 301 298 297 296 294 293 291 289 288 286 285 284 282 280 278 277 276 274 273 272 271 270 269 268 267 266 266 266 265 265 264 263 262
6 4 357 354 350 347 347 348 346 343 343 342 342 342 339 339 337 333 337 337 331 330 331 329 326 326 326 324 324 324 323 323 323 323 321 320 319 317 315 314 314 313 312 311 311 310 309 308 307 306 305 304 302 300 298 296 294 292 291 290 288 286 285 284 284 283 281 279 277 275 274 273 272 270 270 269 268 267 266 266 266 265 264 264 263 263
6 358 353 350 348 346 344 346 347 344 343 342 341 341 337 337 335 331 332 331 329 330 331 328 324 324 322 321 323 321 321 322 322 322 322 320 319 317 315 314 314 313 311 310 310 309 308 308 307 306 305 303 301 299 297 295 293 291 290 289 287 285 284 283 283 282 281 280 278 276 274 273 271 270 269 269 268 268 267 267 266 265 265 264 263 263
1 354 349 347 347 347 345 347 348 342 340 341 340 338 334 333 331 329 330 330 331 333 333 331 327 326 324 321 322 321 320 322 323 323 322 320 319 318 317 315 313 313 311 311 310 309 309 308 307 306 305 303 301 299 297 294 293 292 290 289 287 285 283 282 282 282 282 281 280 278 275 273 271 270 269 268 267 267 267 266 266 266 265 264 263 262
354 349 347 346 343 344 346 347 345 339 337 340 340 336 334 332 329 329 331 331 333 333 332 332 328 326 324 321 322 322 321 323 323 322 322 320 320 318 316 315 314 313 312 310 310 310 309 308 307 306 304 303 301 300 297 294 293 292 290 289 287 285 284 283 282 282 282 281 281 280 277 274 271 270 269 268 267 267 266 266 266 265 265 264 263 262
348 346 346 344 342 344 346 344 342 338 336 337 338 335 333 331 328 331 332 330 332 331 330 332 329 325 323 324 323 321 320 322 323 322 320 319 319 317 316 316 315 313 313 312 311 311 310 309 308 306 305 303 302 300 298 295 294 293 291 288 287 285 284 283 282 282 281 281 280 279 277 273 271 270 269 268 268 267 266 266 266 265 264 264 263 262
346 345 345 342 343 345 343 340 339 337 335 335 336 334 332 330 330 331 330 329 332 331 331 335 333 326 324 326 325 319 319 321 322 321 320 318 318 317 317 316 316 314 313 313 312 312 312 311 309 308 306 305 304 302 299 296 295 294 291 288 287 286 285 284 284 282 281 280 279 278 275 273 271 270 269 269 268 267 266 266 266 265 265 264 263 263
344 345 343 341 343 343 340 338 337 336 335 333 331 331 332 331 331 331 330 331 331 330 334 336 334 328 323 324 324 321 321 323 322 321 320 319 318 317 317 316 316 315 314 314 313 313 313 312 311 309 308 307 306 304 302 299 297 296 293 289 287 287 286 286 285 284 282 281 278 276 275 273 272 271 270 269 267 267 266 266 265 265 264 264 263 263
340 342 341 340 342 340 338 338 337 335 333 331 330 332 333 332 331 330 330 332 331 330 336 336 333 328 323 324 326 325 324 323 322 321 321 321 320 319 318 317 317 316 316 316 314 314 314 314 313 311 310 309 308 307 305 302 301 299 296 292 290 289 288 287 285 284 284 282 278 276 276 274 273 271 270 269 267 267 266 265 265 265 264 263 263 262
335 340 343 341 341 340 338 338 339 336 332 332 336 338 337 333 332 330 331 335 334 331 334 334 332 328 322 325 329 328 326 323 322 321 322 322 321 319 318 318 318 318 318 317 316 315 315 315 315 313 312 311 310 308 307 305 304 302 299 296 295 294 292 290 288 286 285 282 279 278 278 277 275 273 271 269 268 267 266 265 265 265 264 264 263 262
334 339 344 342 342 342 339 339 341 338 336 338 341 343 341 337 335 334 334 336 332 329 332 334 332 327 324 327 329 327 326 324 322 322 321 321 320 321 321 320 320 320 319 318 318 317 317 316 316 315 313 312 311 310 308 307 306 304 302 301 300 299 298 295 292 290 288 285 283 281 280 280 278 275 273 271 269 267 266 264 264 263 263 263 262 262
340 339 343 344 344 342 340 342 343 340 340 343 345 345 344 340 337 335 335 334 330 328 330 332 331 328 327 329 328 326 325 324 322 321 321 322 323 323 323 322 321 320 320 320 319 318 318 317 316 316 315 314 312 311 310 309 307 305 304 304 304 302 301 298 295 293 291 289 286 284 283 282 281 278 276 274 272 269 267 265 263 263 262 262 262 261
342 340 344 347 345 342 343 344 343 340 340 344 344 345 345 341 336 333 334 332 327 326 327 329 330 330 329 329 327 325 324 323 323 323 323 324 324 323 322 321 321 321 321 320 320 319 318 318 317 317 316 314 313 312 311 309 308 307 307 306 306 305 303 300 298 296 294 292 290 287 285 284 283 281 279 277 275 272 269 266 264 263 262 262 261 261
341 340 344 347 344 342 344 343 340 340 341 343 343 343 343 339 332 330 329 327 324 324 327 329 328 329 329 329 329 327 324 324 326 326 326 325 324 323 322 322 323 322 322 322 321 320 319 319 319 317 316 315 314 313 312 310 310 310 309 308 308 306 305 303 301 299 297 295 293 291 289 287 286 284 282 280 278 276 273 270 267 264 263 262 261 261
345 343 346 346 345 345 345 342 342 343 342 342 343 343 341 337 332 332 329 327 326 324 327 329 328 329 331 330 330 328 326 327 328 328 327 326 325 324 324 324 324 323 323 323 322 321 321 320 320 319 318 316 315 314 313 312 312 311 310 309 309 307 306 304 303 301 299 297 295 294 292 290 289 287 285 283 281 280 277 274 271 268 265 263 262 261
345 342 346 347 346 346 345 343 346 345 342 343 344 341 340 337 336 337 333 331 330 326 327 329 328 330 332 330 330 329 328 329 329 329 328 327 326 326 326 325 325 324 324 323 323 322 322 322 321 320 318 317 317 316 314 313 312 311 310 310 309 307 306 305 304 302 301 299 298 296 294 293 291 289 287 285 284 283 281 278 275 273 270 267 265 263
345 341 346 347 345 345 345 342 344 345 344 346 345 341 341 340 337 337 335 332 331 327 327 328 328 330 332 330 330 329 329 330 330 330 329 328 328 327 327 327 326 326 325 324 324 324 323 323 322 321 320 319 318 315 314 313 312 312 311 310 309 308 307 306 305 303 302 301 300 298 297 295 293 291 288 286 285 284 283 281 279 277 274 272 269 266
347 343 345 346 345 343 343 342 341 342 343 344 344 343 344 341 336 336 336 333 330 328 327 328 330 334 335 332 331 330 331 331 330 331 330 329 329 329 328 328 327 327 326 326 326 326 325 324 323 322 321 321 318 316 315 315 315 314 312 311 309 307 306 305 304 303 302 302 301 299 297 296 294 292 289 287 286 285 284 282 281 279 277 275 272 270
348 344 340 342 344 342 342 344 342 341 341 342 343 343 343 341 338 335 335 334 333 331 330 329 329 332 335 334 333 332 332 332 331 331 331 330 330 329 329 328 328 328 327 327 327 327 326 325 323 322 321 321 320 318 318 317 317 315 312 310 308 306 305 305 304 303 303 302 302 300 298 296 294 293 291 289 287 286 285 283 282 280 278 277 274 272
347 344 339 339 343 343 343 343 340 341 344 343 342 342 341 341 340 337 336 337 336 332 330 327 326 330 335 336 335 334 332 332 333 332 331 330 330 329 329 329 329 329 328 328 328 327 326 325 324 322 321 321 320 319 319 318 316 314 311 310 308 306 305 304 304 303 303 302 301 300 298 297 295 294 292 290 289 288 287 285 283 281 279 277 275 273
345 342 339 338 339 343 345 343 341 345 348 345 343 342 341 341 341 338 336 335 334 331 330 327 324 330 337 337 335 334 332 333 334 333 331 330 330 330 331 330 330 329 329 329 329 328 327 326 324 322 322 322 321 320 319 318 315 313 311 310 309 308 306 305 304 303 302 302 300 298 297 295 295 294 293 292 290 289 289 287 286 284 281 279 277 275
344 342 340 337 338 342 344 342 341 343 344 343 342 341 340 339 339 338 335 334 333 331 332 330 327 330 336 335 333 333 332 333 334 334 332 331 331 332 332 332 331 330 330 330 329 328 327 326 325 323 322 322 321 320 319 317 315 314 313 312 311 310 309 306 305 304 303 302 300 297 295 294 294 294 293 292 291 290 290 289 288 286 284 282 279 277
344 343 342 340 339 341 341 339 338 337 338 339 339 338 338 339 338 337 337 335 333 332 334 332 327 328 333 334 332 333 332 333 334 334 333 332 333 333 333 333 332 331 331 330 330 329 328 327 325 324 324 323 322 320 319 317 317 316 315 314 313 311 309 306 304 303 303 302 300 297 295 295 294 294 294 293 292 291 291 290 289 288 286 283 281 278
342 343 344 343 341 339 337 336 336 335 335 336 338 338 338 339 339 338 337 335 333 333 333 330 325 326 331 333 333 334 334 333 334 334 334 334 334 334 334 333 333 332 332 331 330 329 329 328 327 326 325 324 322 320 319 319 318 317 315 313 311 309 308 306 304 303 302 302 300 298 297 296 295 295 295 294 293 293 292 292 291 289 287 285 282 280
342 342 344 343 337 333 332 331 332 334 333 333 335 338 339 339 338 338 338 335 333 332 331 329 327 326 329 333 334 335 335 334 334 335 335 335 335 335 334 333 333 332 332 331 330 330 330 329 328 327 326 324 322 322 322 320 318 316 314 312 311 310 309 308 306 305 303 302 301 299 298 297 296 296 296 295 295 295 295 294 293 290 288 286 283 281
341 340 342 341 335 330 330 329 331 333 332 331 333 337 339 338 337 338 337 334 334 332 330 331 331 328 329 333 335 336 335 335 335 335 336 336 335 335 334 333 333 333 332 331 331 331 331 330 329 328 326 325 324 323 323 321 319 316 316 316 315 314 313 312 311 308 306 303 302 300 298 297 297 297 297 297 298 298 297 296 294 292 290 288 285 282
341 340 341 340 335 332 330 331 333 334 333 332 333 336 339 338 336 337 336 335 335 333 329 329 330 329 330 333 335 336 336 335 335 335 335 336 335 335 334 334 334 333 333 332 331 331 331 331 330 329 328 327 325 324 323 323 321 320 320 320 319 318 317 316 314 311 308 305 303 301 299 299 298 298 299 300 300 300 299 298 296 294 292 290 288 284
340 340 340 339 337 334 333 335 337 336 333 333 335 337 339 338 336 336 336 335 334 331 329 329 330 330 332 335 335 336 335 335 335 335 335 336 336 336 335 335 334 333 332 332 331 331 331 331 330 330 329 329 327 325 325 324 323 323 323 322 321 320 319 318 317 314 311 308 305 303 302 301 300 300 301 302 301 301 301 300 298 296 294 292 289 285
340 341 341 340 338 337 339 340 338 336 335 335 337 338 339 338 337 337 336 335 333 332 332 332 331 332 335 336 335 335 336 336 336 336 336 336 337 337 336 335 335 334 332 332 331 331 331 331 331 331 331 330 329 327 325 324 323 323 324 323 322 321 321 320 318 316 313 311 308 306 305 304 303 302 302 303 302 303 303 303 301 298 296 294 292 288
341 341 341 341 339 339 342 341 338 339 340 339 338 339 339 339 338 337 337 336 334 333 333 334 334 335 337 336 336 336 337 337 337 337 337 337 337 336 336 336 335 334 333 332 331 331 331 331 332 333 333 331 329 327 325 323 322 322 323 324 323 322 321 319 317 316 314 311 309 307 307 306 305 305 304 304 304 304 305 304 302 299 298 297 295 292
341 340 341 342 339 339 342 341 338 340 342 340 340 340 340 339 338 337 337 336 335 334 335 335 335 336 336 336 337 337 338 338 338 338 338 337 337 336 335 335 335 334 333 332 331 331 331 331 332 333 334 332 329 326 324 323 322 322 323 323 322 321 320 318 318 317 315 313 311 309 308 307 306 306 307 307 306 306 306 304 302 301 300 299 297 295
341 341 342 342 340 338 340 340 338 339 342 341 341 341 341 340 338 337 337 337 337 337 336 335 335 336 336 337 337 337 338 338 338 338 337 338 338 336 336 335 335 333 333 332 331 331 331 332 332 333 333 332 328 325 324 323 322 323 324 323 321 321 321 320 319 319 317 316 314 313 311 310 308 308 309 309 308 307 306 305 303 301 300 300 298 297
342 343 342 342 340 338 340 342 343 343 343 341 340 341 341 339 337 336 336 337 338 337 336 336 336 336 336 336 336 337 337 338 338 337 337 338 338 337 336 335 335 333 333 332 332 331 331 332 332 333 333 331 327 325 324 323 323 324 324 323 322 321 321 320 319 319 318 317 316 315 314 312 311 311 310 310 309 308 307 305 303 301 301 300 300 300
343 343 343 342 342 340 341 344 343 339 340 342 341 340 340 339 338 337 337 339 340 338 338 338 337 336 337 336 337 337 337 337 337 338 338 339 339 338 336 335 334 333 333 333 332 332 332 332 333 333 332 330 327 325 324 324 325 325 324 323 322 321 320 319 319 319 318 317 317 317 316 314 314 313 312 310 309 309 308 306 303 302 302 303 303 304
344 344 343 343 344 343 341 340 338 335 338 343 342 340 340 340 340 338 336 337 341 341 340 338 337 337 338 337 337 338 337 337 338 340 340 339 339 338 336 335 334 332 332 332 332 332 332 333 333 332 331 329 327 325 325 325 325 324 323 323 322 321 320 320 319 319 318 318 318 318 317 317 316 314 312 311 310 310 309 306 304 305 305 306 307 306
345 344 344 343 344 344 341 339 339 339 341 343 342 341 340 339 338 337 335 337 342 342 340 339 338 338 338 338 338 339 338 338 339 341 341 340 338 337 336 335 333 332 332 332 332 332 333 333 333 332 331 329 327 326 325 325 325 323 323 322 322 321 321 320 320 319 319 318 318 318 319 320 318 315 313 312 312 311 309 307 307 308 309 309 309 309
346 345 344 344 344 344 342 341 341 340 340 342 341 340 340 339 338 337 335 337 342 342 340 339 338 338 338 339 339 340 339 338 339 340 340 339 338 337 336 335 334 332 332 333 333 333 333 333 333 332 331 329 327 326 326 325 324 323 322 322 321 320 320 319 319 319 318 317 317 319 321 321 318 314 313 312 312 311 310 310 310 312 312 312 312 312
345 343 343 344 343 343 342 341 340 339 339 340 340 340 340 339 338 338 337 338 341 341 340 339 338 338 339 339 339 340 340 338 338 338 338 337 337 337 336 335 334 333 333 333 333 334 334 333 333 332 331 330 328 327 326 325 324 324 322 322 321 320 319 318 318 319 317 315 317 321 323 321 318 315 314 313 312 311 312 313 314 314 315 316 316 315
343 342 343 343 342 342 342 340 339 339 339 340 340 340 341 340 340 341 339 338 338 339 339 339 338 338 339 339 340 340 339 337 336 336 336 336 337 337 336 335 334 333 333 333 334 334 334 334 333 333 331 330 329 328 327 326 325 324 323 322 320 319 319 318 317 317 315 313 317 321 322 320 317 315 315 315 314 313 314 315 315 316 318 319 319 318
342 342 342 342 342 342 341 340 340 340 341 342 341 341 342 342 342 341 338 337 338 338 339 339 338 338 339 339 339 339 337 337 336 336 337 337 337 337 336 335 334 333 333 334 334 335 335 334 334 333 332 331 330 329 328 327 326 324 323 322 321 319 319 317 317 315 313 313 317 320 320 318 316 314 315 316 315 314 315 315 316 318 320 322 323 323
342 342 342 342 343 342 341 341 342 341 342 344 343 342 343 343 341 338 338 338 339 338 338 339 339 339 339 338 338 338 337 337 337 337 337 338 338 337 336 336 335 334 334 334 335 336 335 334 334 334 333 333 332 330 329 328 327 326 324 323 321 320 319 317 316 314 313 313 316 318 318 317 314 314 316 317 316 315 316 317 319 322 325 328 329 330
342 343 342 342 343 343 342 342 342 339 339 343 343 341 341 341 339 339 338 339 339 339 339 339 339 339 339 338 338 338 338 338 338 338 338 338 338 338 337 337 335 334 334 335 336 336 336 335 335 335 334 334 333 332 331 329 328 327 325 323 322 321 319 316 315 314 313 314 316 318 318 316 314 315 318 318 317 316 317 319 322 327 332 334 335 339
341 341 342 342 342 342 339 337 337 337 338 341 341 339 339 340 340 340 339 339 339 340 340 340 339 339 340 339 339 339 339 339 338 338 338 339 339 338 337 336 335 335 335 335 336 336 336 336 336 335 335 334 333 333 332 330 329 327 326 325 324 322 319 317 316 314 314 315 318 319 318 317 315 316 319 319 318 318 321 323 325 331 336 338 341 344
340 340 342 342 340 339 337 335 335 337 339 340 340 339 340 340 340 340 340 340 340 340 340 340 340 340 340 340 339 339 339 339 339 339 339 339 339 338 337 336 336 335 335 336 336 337 337 337 337 336 336 335 334 334 333 332 330 329 328 327 326 324 322 320 318 316 315 317 319 321 320 319 317 318 320 320 320 323 325 324 327 334 339 342 344 347
340 340 340 340 340 340 340 338 337 339 339 338 339 340 340 340 341 341 340 340 340 340 340 341 340 341 341 340 340 340 340 340 339 339 340 340 339 338 338 337 336 336 335 336 336 337 338 338 338 338 337 336 335 335 335 333 332 331 330 329 328 328 327 324 320 319 319 320 322 322 322 321 320 321 322 321 322 325 326 325 329 335 339 343 347 350
340 339 338 338 338 338 337 337 337 338 338 337 338 340 341 341 341 341 341 340 340 341 341 342 342 342 341 341 341 341 341 341 340 340 340 340 339 339 339 338 337 336 336 336 336 337 338 339 338 338 338 337 336 336 336 335 333 333 332 332 332 332 330 327 324 323 323 324 325 325 324 323 322 323 322 320 321 326 327 327 332 336 340 345 349 351
339 339 338 337 337 337 336 337 339 339 339 340 340 340 341 341 341 341 341 341 341 341 342 343 343 343 342 341 342 342 342 341 341 341 341 341 340 340 339 338 337 336 335 336 337 338 339 339 339 338 338 337 337 337 337 336 335 335 335 335 335 334 332 330 329 328 327 328 328 328 328 326 323 323 321 318 320 326 328 328 332 337 342 347 348 351
338 338 338 338 338 338 339 340 340 340 340 341 341 340 340 340 340 341 341 341 341 342 342 343 343 343 343 343 343 343 343 342 342 342 342 341 341 340 340 339 338 336 335 336 337 338 339 340 339 339 339 338 338 337 338 337 336 337 338 337 337 336 334 333 333 332 332 332 331 330 330 329 326 325 322 319 321 327 328 327 331 340 348 350 349 353
337 337 338 337 337 337 338 339 339 339 339 339 339 340 340 340 341 341 341 341 341 342 343 343 343 343 344 344 344 344 343 343 343 343 342 342 342 341 341 340 338 336 336 337 337 338 339 340 340 339 339 339 338 338 338 337 337 338 339 339 338 337 335 335 335 334 334 334 332 331 332 332 331 328 323 320 322 328 331 330 331 341 351 353 353 356